Location: Houdilcourt
(49.4255°N, 4.1277°E)
Time: 04:33:42
(UTC+00:00)

Daily predictions for brighter satellites

Satellite Brightness Start Highest point End
(mag) Time Altitude Azimuth Time Altitude Azimuth Time Altitude Azimuth
Lacrosse 5 rocket 3.0 00:00:01 10° NW 00:03:53 34° NNE 00:07:37 10° E
USA 59 Rocket 2.0 00:03:46 10° WNW 00:06:12 18° WSW 00:06:12 18° WSW
Meteor 1-12 Rocket 4.3 00:03:21 10° N 00:09:15 81° ENE 00:12:09 32° SSE
Aureole 3 4.4 00:09:48 23° E 00:09:48 23° E 00:12:14 10° NE
Meteor 2-10 Rocket 3.8 00:05:27 10° N 00:11:19 78° ENE 00:14:09 32° SSE
SL-16 R/B 4.1 00:07:59 10° NNW 00:12:50 28° NE 00:17:40 10° ESE
Cosmos 724 4.3 00:10:54 37° S 00:13:12 64° ESE 00:18:58 10° NE
GP-B 3.1 00:09:44 10° N 00:14:09 74° W 00:15:19 47° SSW
Cosmos 1869 Rocket 3.8 00:09:58 10° NNW 00:14:13 52° W 00:15:08 43° SW
Cosmos 1733 Rocket 3.3 00:11:06 10° N 00:15:25 62° ENE 00:16:54 38° SE
S3M 4.4 00:10:19 10° NNW 00:16:30 54° W 00:19:20 32° SSW
Cosmos 540 Rocket 3.9 00:12:36 10° NNW 00:17:44 59° ENE 00:21:00 22° SE
Helios 1A Rocket 3.5 00:17:05 31° SE 00:18:32 48° ENE 00:22:16 10° N
ALOS 2 4.4 00:17:52 18° WSW 00:18:40 19° W 00:21:48 10° NW
Cosmos 2315 Rocket 4.0 00:13:36 10° NNW 00:19:52 72° W 00:22:49 33° S
Cosmos 2082 Rocket 2.7 00:21:35 32° SSE 00:23:47 47° ESE 00:29:15 10° NE
H-2A R/B 2.8 00:21:02 10° N 00:25:18 46° WNW 00:26:54 31° WSW
Cosmos 2285 Rocket 4.1 00:24:19 30° SW 00:27:35 75° WNW 00:33:57 10° NNE
Cosmos 1833 Rocket 3.1 00:25:06 26° SW 00:28:11 57° WNW 00:33:45 10° NNE
CZ-2C R/B 3.8 00:28:07 34° S 00:30:20 89° W 00:50:08 10° N
SL-8 R/B 3.5 00:30:29 10° W 00:35:14 68° SSW 00:39:59 10° ESE
CZ-2D R/B 4.1 00:35:26 10° NE 00:39:28 21° E 00:43:20 11° SE
MOZ.5/SAFIR/RUBIN 5/SL-8 4.4 00:40:20 20° SE 00:43:25 53° ENE 00:48:01 10° N
Cosmos 44 Rocket 3.8 00:38:53 10° NW 00:43:26 37° WSW 00:44:07 35° SW
Cosmos 1400 Rocket 2.8 00:44:54 46° SW 00:45:56 69° WNW 00:49:57 10° N
Cosmos 1862 Rocket 3.4 00:48:10 42° SSW 00:49:34 87° W 00:53:56 10° N
Cosmos 2278 4.2 00:49:01 10° NNW 00:54:41 59° ENE 01:00:19 10° SE
DELTA 2 R/B (1) 4.4 00:56:20 28° S 00:56:20 28° S 01:00:53 10° ESE
[s.n.59772] 3.8 00:57:08 32° E 00:57:08 32° E 00:58:48 10° ENE
Okean 2 3.9 00:54:46 31° SSE 00:56:15 49° E 01:00:06 10° NNE
Resurs 1-4 Rocket 3.5 00:53:02 10° NE 00:57:34 29° E 01:01:10 14° SSE
[s.n.59769] 3.7 00:58:37 33° E 00:58:37 33° E 01:00:21 10° ENE
Cosmos 1244 Rocket 4.4 00:55:10 29° S 00:58:29 89° W 01:04:44 10° N
[s.n.59767] 3.6 00:59:58 35° E 00:59:58 35° E 01:01:47 10° ENE
BREEZE-M DEB (TANK) 2.7 00:56:23 10° WNW 00:59:13 37° N 01:01:07 10° ENE
Cosmos 1346 Rocket 2.7 00:55:32 10° NNW 00:59:24 71° W 01:00:29 44° S
[s.n.59764] 3.5 01:00:45 35° E 01:00:45 35° E 01:02:32 10° ENE
[s.n.59765] 3.4 01:02:15 38° E 01:02:15 38° E 01:04:07 10° ENE
Cosmos 1607 4.3 00:57:36 20° WSW 01:02:10 63° NW 01:08:38 10° NE
[s.n.59763] 3.3 01:03:15 39° E 01:03:15 39° E 01:05:10 10° ENE
Cosmos 1455 2.6 00:59:56 10° N 01:03:18 49° ENE 01:04:52 27° SE
[s.n.59762] 3.2 01:04:27 42° E 01:04:27 42° E 01:06:26 10° ENE
[s.n.59761] 3.1 01:05:32 44° E 01:05:32 44° E 01:07:35 10° ENE
Cosmos 2333 Rocket 4.1 01:00:32 10° NNW 01:05:35 31° NE 01:10:38 10° ESE
[s.n.59760] 3.0 01:06:48 47° E 01:06:48 47° E 01:08:54 10° ENE
OPS 6432 4.1 01:03:28 10° NW 01:06:33 63° SW 01:06:45 61° SSW
[s.n.59759] 2.9 01:08:00 50° ESE 01:08:00 50° ESE 01:10:11 10° ENE
USA 267 3.6 01:01:12 10° ENE 01:07:40 65° NNW 01:14:06 10° WSW
[s.n.59758] 2.8 01:09:22 53° ESE 01:09:22 53° ESE 01:11:37 10° ENE
[s.n.59757] 2.7 01:10:43 57° ESE 01:10:43 57° ESE 01:13:03 10° ENE
Cosmos 841 Rocket 3.6 01:06:38 10° NNW 01:11:53 76° ENE 01:16:40 13° SSE
[s.n.59756] 2.6 01:12:11 61° ESE 01:12:11 61° ESE 01:14:35 10° ENE
CZ-2C R/B 3.4 01:07:26 10° SE 01:12:23 49° ENE 01:17:22 10° N
Cosmos 2322 Rocket 3.4 01:08:12 10° NNW 01:13:35 44° NE 01:18:59 10° SE
[s.n.59755] 2.5 01:13:48 66° ESE 01:13:48 66° ESE 01:16:17 10° ENE
Cosmos 1707 Rocket 4.3 01:12:36 29° SW 01:14:21 42° WNW 01:18:36 10° N
SL-14 R/B 4.2 01:13:48 27° WSW 01:14:59 34° WNW 01:18:33 10° N
[s.n.59754] 2.4 01:15:29 70° SE 01:15:29 70° SE 01:18:03 10° ENE
Cosmos 1953 2.1 01:12:58 10° N 01:16:55 89° WSW 01:18:40 32° S
[s.n.59753] 2.3 01:17:21 75° SSE 01:17:21 75° SSE 01:20:03 10° ENE
Cosmos 1697 Rocket 4.3 01:17:30 10° WNW 01:20:58 17° W 01:22:00 16° WSW
Cosmos 676 Rocket 4.0 01:19:36 28° SSW 01:22:28 86° WNW 01:27:50 10° NNE
Okean 1-7 2.9 01:21:15 33° SSW 01:23:09 79° W 01:27:29 10° N
Cosmos 2228 Rocket 4.3 01:21:27 22° WSW 01:23:22 31° WNW 01:27:24 10° N
NPP 4.0 01:20:35 10° NNE 01:25:56 60° ESE 01:29:33 21° S
SL-16 R/B 3.7 01:20:21 10° SE 01:26:12 43° ENE 01:32:04 10° N
Cosmos 1356 Rocket 4.0 01:24:58 29° SW 01:26:33 44° WNW 01:30:31 10° N
Cosmos 468 Rocket 4.4 01:21:41 10° NW 01:26:41 44° WSW 01:29:08 26° SSW
NOSS 3-4 (A) 4.4 01:20:47 10° NW 01:27:06 37° WSW 01:31:47 20° S
NOSS 3-4 (C) 4.4 01:20:53 10° NW 01:27:12 38° WSW 01:31:57 20° S
Cosmos 1980 Rocket 3.1 01:23:06 10° NW 01:28:01 30° WSW 01:30:01 24° SW
Cosmos 1300 4.3 01:25:57 10° NW 01:28:28 18° W 01:28:49 18° W
Cosmos 1954 Rocket 4.2 01:26:15 26° SW 01:29:15 65° WNW 01:34:34 10° NNE
Cosmos 1709 Rocket 4.5 01:24:38 16° SSE 01:29:41 58° E 01:35:55 10° NNE
SJ 16-02 3.3 01:28:25 10° SSE 01:31:38 21° E 01:34:51 10° NE
COBE Rocket 4.0 01:28:27 10° NNE 01:33:20 75° ESE 01:36:31 22° S
Okean 3 4.2 01:32:08 26° WSW 01:33:48 38° WNW 01:37:40 10° N
COSMOS 2406 3.4 01:31:08 23° SW 01:34:44 68° WNW 01:40:31 10° NNE
Cosmos 2369 4.5 01:31:42 10° NW 01:36:46 33° WSW 01:39:15 23° SSW
Cosmos 1782 Rocket 3.6 01:35:51 10° N 01:40:17 82° ENE 01:43:39 17° SSE
Cosmos 1908 Rocket 3.8 01:36:49 10° NNW 01:41:09 53° W 01:43:27 25° SSW
Lacrosse 5 rocket 1.1 01:38:27 10° WNW 01:42:34 81° SW 01:46:31 10° SE
USA 234 4.1 01:42:20 20° SSW 01:45:13 27° SW 01:50:37 10° WNW
ADEOS II 2.8 01:42:18 10° NNE 01:47:22 47° E 01:51:56 12° S
Meteor 1-4 Rocket 2.5 01:50:47 32° SW 01:51:43 45° WNW 01:54:37 10° N
Cosmos 1315 Rocket 2.8 01:50:14 26° SSW 01:52:14 63° WNW 01:56:09 10° N
IDEFIX/ARIANE 42P 2.6 01:48:52 10° NNE 01:54:09 81° WNW 01:57:56 19° SSW
Cosmos 2098 Rocket 4.3 01:52:25 10° N 01:57:19 56° ENE 02:03:07 10° SSE
SL-16 R/B 2.2 01:51:47 10° NNW 01:57:26 67° WSW 02:03:02 10° SSE
Cosmos 2082 Rocket 3.3 02:03:24 13° WSW 02:08:01 36° NW 02:13:19 10° NNE
Cosmos 839 Rocket 4.5 02:00:27 10° NW 02:08:01 75° NE 02:14:20 10° SE
MSX 3.9 02:02:57 10° NNE 02:08:42 76° WNW 02:13:21 16° SSW
CZ-2C R/B 3.4 02:03:07 10° NNE 02:08:59 79° ESE 02:14:11 13° S
Cosmos 2219 Rocket 3.2 02:07:11 10° NNW 02:12:41 50° NE 02:18:10 10° SE
Cosmos 1745 Rocket 4.3 02:08:10 17° SSW 02:12:50 53° WNW 02:18:59 10° N
Cosmos 2242 Rocket 3.6 02:09:23 16° S 02:12:58 88° ESE 02:17:30 10° N
RESURS DK-1 3.0 02:11:20 10° NNW 02:15:22 57° NE 02:19:22 10° SE
SL-27 R/B 3.1 02:15:03 14° S 02:17:05 35° ESE 02:19:42 10° NE
SL-8 R/B 4.4 02:13:05 10° W 02:17:13 29° SSW 02:21:20 10° SSE
H-2A R/B 4.0 02:13:32 10° N 02:17:19 42° WNW 02:20:00 17° SW
Meteor 1-24 Rocket 4.3 02:12:49 10° S 02:18:44 62° E 02:24:39 10° NNE
CZ-2D R/B 2.3 02:14:32 10° N 02:20:00 69° WNW 02:24:38 14° SSW
Cosmos 1408 2.0 02:18:27 19° SSW 02:20:26 79° W 02:23:27 10° N
Cosmos 2360 Rocket 2.2 02:15:13 10° NNW 02:20:57 85° WSW 02:26:37 10° SSE
Cosmos 1242 Rocket 2.2 02:21:11 21° SW 02:22:50 51° WNW 02:25:40 10° N
Cosmos 1703 3.3 02:21:23 12° S 02:24:49 73° E 02:28:33 10° NNE
ATLAS 2AS CENTAUR R/B 3.2 02:17:58 10° NW 02:24:51 65° NE 02:31:27 10° SE
SL-24 R/B 4.3 02:21:09 10° S 02:26:04 80° W 02:30:54 10° N
COSMOS 2441 4.4 02:21:24 10° N 02:26:12 71° WNW 02:30:24 13° SSW
Cosmos 1850 Rocket 4.2 02:22:43 15° SW 02:27:01 64° WNW 02:32:17 10° NNE
Meteor 1-28 Rocket 3.0 02:25:03 10° S 02:28:36 64° WSW 02:32:10 10° NNW
[s.n.59772] 3.6 02:27:56 10° W 02:30:26 40° N 02:32:57 10° ENE
ALOS 2.6 02:26:11 10° NNE 02:30:48 64° ESE 02:35:23 10° S
Cosmos 1741 Rocket 4.2 02:27:10 15° SW 02:31:31 62° WNW 02:36:45 10° NNE
[s.n.59769] 3.7 02:29:30 10° W 02:32:01 39° N 02:34:31 10° ENE
[s.n.59767] 3.7 02:30:56 10° W 02:33:26 39° N 02:35:57 10° ENE
Okean 2 Rocket 3.7 02:29:31 10° N 02:33:53 59° ENE 02:38:13 10° SSE
[s.n.59764] 3.7 02:31:39 10° W 02:34:08 39° N 02:36:37 10° ENE
Timation 1 Rocket 4.4 02:28:59 14° SSW 02:34:16 84° WNW 02:40:17 10° NNE
[s.n.59765] 3.7 02:33:15 10° W 02:35:44 38° N 02:38:13 10° ENE
[s.n.59763] 3.7 02:34:18 10° W 02:36:47 38° N 02:39:17 10° ENE
Cosmos 1455 4.1 02:35:55 10° WNW 02:37:21 12° W 02:38:38 10° WSW
Resurs 1-4 Rocket 2.6 02:32:32 10° N 02:37:34 47° WNW 02:42:13 12° SW
[s.n.59762] 3.7 02:35:35 10° W 02:38:03 38° N 02:40:33 10° ENE
[s.n.59761] 3.8 02:36:44 10° W 02:39:14 38° N 02:41:44 10° ENE
Cosmos 1300 Rocket 4.4 02:35:48 10° NNW 02:39:37 31° W 02:43:07 12° SSW
FENGYUN 3A 3.7 02:35:10 10° N 02:40:33 72° WNW 02:45:53 10° SSW
[s.n.59760] 3.8 02:38:05 10° W 02:40:35 37° N 02:43:05 10° ENE
SAR-Lupe-4 3.6 02:37:47 10° NNE 02:41:23 81° ESE 02:44:57 10° SSW
[s.n.59759] 3.8 02:39:21 10° W 02:41:52 37° N 02:44:22 10° ENE
Cosmos 1674 Rocket 4.3 02:38:17 10° S 02:42:37 55° E 02:46:58 10° NNE
[s.n.59758] 3.8 02:40:48 10° W 02:43:19 37° N 02:45:50 10° ENE
Genesis I 3.0 02:40:28 13° SSW 02:43:29 73° SE 02:47:03 10° NE
[s.n.59757] 3.8 02:42:15 10° W 02:44:46 37° N 02:47:17 10° ENE
[s.n.59756] 3.9 02:43:48 10° W 02:46:19 37° N 02:48:51 10° ENE
Cosmos 968 Rocket 3.6 02:42:48 12° SW 02:47:32 62° WNW 02:52:38 10° NNE
Cosmos 2184 Rocket 4.2 02:41:45 10° S 02:47:56 74° E 02:54:14 10° NNE
[s.n.59755] 3.9 02:45:31 10° WNW 02:48:03 37° N 02:50:35 10° ENE
[s.n.59754] 3.9 02:47:20 10° WNW 02:49:51 36° N 02:52:23 10° ENE
USA 267 4.3 02:44:01 10° ENE 02:50:11 46° N 02:56:21 10° WNW
Cosmos 2333 Rocket 2.3 02:44:36 10° NW 02:50:13 59° WSW 02:55:50 10° S
[s.n.59753] 3.9 02:49:20 10° WNW 02:51:53 36° N 02:54:26 10° ENE
CZ-2C R/B 3.6 02:48:37 10° SSW 02:52:54 26° W 02:57:15 10° NW
UNK 3.8 02:49:07 10° S 02:53:44 67° WSW 02:58:22 10° NNW
Meteor 2-5 Rocket 3.9 02:49:04 10° SSW 02:54:58 75° WNW 03:00:57 10° N
Nadezhda 3 Rocket 4.3 02:50:38 10° N 02:57:02 77° E 03:03:22 10° SSE
Cosmos 2322 Rocket 2.8 02:52:24 10° NW 02:57:34 37° WSW 03:02:43 10° S
Cosmos 2154 Rocket 4.3 02:52:45 10° S 02:58:55 73° E 03:05:08 10° NNE
EXPRESS MD2 3.3 02:57:18 10° WSW 03:00:20 69° SSE 03:05:44 10° ENE
Cosmos 1378 Rocket 3.5 02:56:12 10° S 03:00:29 85° W 03:04:48 10° N
CZ-4 R/B 4.4 02:56:29 10° NNE 03:01:07 59° ESE 03:05:48 10° S
AQUA 4.2 02:56:56 10° N 03:01:30 49° WNW 03:06:02 10° SW
SAR-Lupe-1 4.2 02:59:27 10° N 03:03:00 61° WNW 03:06:31 10° SSW
Okean 1 Rocket 3.3 02:58:55 10° N 03:03:17 75° E 03:07:34 10° SSE
Geosat 4.0 03:04:39 10° SSE 03:09:37 61° WSW 03:14:36 10° NW
SJ 16-02 1.8 03:05:29 10° SW 03:09:39 47° WNW 03:13:51 10° NNE
SL-16 R/B 3.0 03:03:58 10° SSW 03:09:49 41° W 03:15:43 10° NNW
SL-4 R/B 3.6 03:06:38 10° SSW 03:10:20 28° SE 03:14:08 10° E
Cosmos 1892 2.5 03:11:22 10° S 03:14:53 88° WNW 03:18:25 10° N
Cosmos 1825 2.0 03:11:37 10° S 03:15:01 80° E 03:18:28 10° NNE
Cosmos 1833 4.3 03:11:31 10° SW 03:17:11 72° WNW 03:22:51 10° NNE
